Voltar ao catálogo

STARLINK-32506

AtivoComunicaçõesVLEO
NORAD 62167·PAYLOAD·🇺🇸 United States

Lançado Nov 30, 2024 de Vandenberg Space Force Base

Loading…

Próximas Passagens (próximas 24 horas)

TLE

AtualizadoSource: CelesTrak SupGP

Época: Sep 15, 2026, 02:48 UTC

1 62167C 24225E   26258.11715278 -.00033341  00000+0 -27947-2 0  2586
2 62167  70.0019  47.0212 0002953 268.0444 138.2722 14.98340530    17

Acompanhe STARLINK-32506 em tempo real com AllMySat

Download on the App Store